This is the latest recevied weather packets stored in our database for station/object WA4IKQ. If no packets are shown the sender has not sent any weather packets the latest 10 day(s).
| Time | Temp. | Humidity | Pressure | Rain* | Wind** | Luminosity | Snow |
|---|---|---|---|---|---|---|---|
| 1777928244 | 26.11° C | 51% | 1015.2 hPa | 0 mm | 1.34 m/s, 79° | - | - |
| 1777927895 | 26.67° C | 49% | 1015.2 hPa | 0 mm | 1.79 m/s, 48° | - | - |
| 1777927805 | 26.67° C | 49% | 1015.2 hPa | 0 mm | 1.79 m/s, 48° | - | - |
| 1777927694 | 26.67° C | 50% | 1015.1 hPa | 0 mm | 1.34 m/s, 86° | - | - |
| 1777927504 | 26.67° C | 50% | 1015.1 hPa | 0 mm | 1.34 m/s, 86° | - | - |
| 1777927085 | 26.67° C | 48% | 1015 hPa | 0 mm | 1.34 m/s, 63° | - | - |
| 1777926819 | 26.67° C | 50% | 1015.1 hPa | 0 mm | 2.24 m/s, 7° | - | - |
| 1777926603 | 26.67° C | 50% | 1015.1 hPa | 0 mm | 2.24 m/s, 7° | - | - |
| 1777926486 | 26.67° C | 50% | 1015.1 hPa | 0 mm | 2.68 m/s, 52° | - | - |
| 1777926109 | 26.11° C | 50% | 1015.2 hPa | 0 mm | 1.79 m/s, 31° | - | - |
| 1777926001 | 26.11° C | 50% | 1015.2 hPa | 0 mm | 1.79 m/s, 31° | - | - |
| 1777925555 | 26.11° C | 51% | 1015.3 hPa | 0 mm | 3.13 m/s, 25° | - | - |
| 1777925508 | 26.11° C | 51% | 1015.3 hPa | 0 mm | 3.13 m/s, 25° | - | - |
| 1777925401 | 26.11° C | 51% | 1015.3 hPa | 0 mm | 3.13 m/s, 25° | - | - |
| 1777925338 | 26.11° C | 51% | 1015.4 hPa | 0 mm | 3.58 m/s, 18° | - | - |
| 1777924670 | 26.67° C | 50% | 1015.6 hPa | 0 mm | 2.24 m/s, 68° | - | - |
| 1777924630 | 26.67° C | 50% | 1015.6 hPa | 0 mm | 2.24 m/s, 68° | - | - |
| 1777924516 | 26.67° C | 50% | 1015.6 hPa | 0 mm | 2.24 m/s, 68° | - | - |
| 1777924293 | 26.67° C | 49% | 1015.5 hPa | 0 mm | 3.13 m/s, 359° | - | - |
| 1777924200 | 26.67° C | 49% | 1015.5 hPa | 0 mm | 3.13 m/s, 359° | - | - |
| 1777924085 | 26.67° C | 48% | 1015.5 hPa | 0 mm | 4.92 m/s, 1° | - | - |
| 1777923900 | 26.67° C | 48% | 1015.5 hPa | 0 mm | 4.92 m/s, 1° | - | - |
| 1777923794 | 26.67° C | 49% | 1015.6 hPa | 0 mm | 1.79 m/s, 27° | - | - |
| 1777923600 | 26.67° C | 49% | 1015.6 hPa | 0 mm | 1.79 m/s, 27° | - | - |
| 1777923518 | 27.22° C | 49% | 1015.7 hPa | 0 mm | 4.92 m/s, 21° | - | - |
* Rain latest hour (hover to see other rain measurements)
** Current wind speed in m/s (hover to see current wind gust speed)